Tracking 30509 objects as of 18-May-2025
HD Live streaming from Space Station
objects crossing your sky now

THOR ABLESTAR DEB

Track THOR ABLESTAR DEB now!
10-day predictions


NORAD ID: 48816
Int'l Code: 1961-015MU
Perigee: 805.8 km
Apogee: 942.0 km
Inclination: 66.8 °
Period: 102.3 minutes
Semi major axis: 7244 km
RCS: Unknown
Launch date: June 29, 1961
Source: United States (US)
Launch site: AIR FORCE EASTERN TEST RANGE (AFETR)

Note: This is SATELLITE DEBRIS
Your satellite tracking list
Your tracking list is empty




NASA's NSSDC Master Catalog

Two Line Element Set (TLE):
1 48816U 61015MU  25137.36206623  .00001095  00000-0  66450-3 0  9995
2 48816  66.8056 176.8633 0094031 119.3549 241.6971 14.07841372590105
Source of the keplerian elements: AFSPC